| time (UTC) | temp C | wind direction | speed KPH | gust KPH | rain 1hr cm | rain 24hr cm | rain mn cm | humidity % | barometer mb |
| 20260506113050 | 16 | 261 | 8.0 | 25.7 | 0.00 | 0.00 | 0.00 | 79 | 1008.6 |
| 20260506111537 | 16 | 294 | 8.0 | 25.7 | 0.00 | 0.00 | 0.00 | 79 | 1008.3 |
| 20260506110040 | 16 | 286 | 4.8 | 24.1 | 0.00 | 0.00 | 0.00 | 79 | 1008.4 |
| 20260506104541 | 16 | 287 | 3.2 | 20.9 | 0.00 | 0.00 | 0.00 | 78 | 1008.3 |
| 20260506103048 | 16 | 248 | 6.4 | 24.1 | 0.00 | 0.00 | 0.00 | 78 | 1008.3 |
| 20260506101551 | 16 | 298 | 6.4 | 24.1 | 0.00 | 0.00 | 0.00 | 77 | 1008.2 |
| 20260506100100 | 16 | 17 | 3.2 | 19.3 | 0.00 | 0.00 | 0.00 | 75 | 1008.2 |
| 20260506094539 | 16 | 246 | 9.7 | 19.3 | 0.00 | 0.00 | 0.00 | 74 | 1008.1 |
| 20260506093042 | 16 | 0 | 3.2 | 19.3 | 0.00 | 0.00 | 0.00 | 73 | 1007.9 |
| 20260506091541 | 16 | 69 | 3.2 | 19.3 | 0.00 | 0.00 | 0.00 | 72 | 1008.3 |
| 20260506090042 | 16 | 322 | 6.4 | 24.1 | 0.00 | 0.00 | 0.00 | 71 | 1008.2 |
| 20260506084600 | 16 | 257 | 3.2 | 11.3 | 0.00 | 0.00 | 0.00 | 69 | 1008.2 |
| 20260506083041 | 16 | 281 | 3.2 | 12.9 | 0.00 | 0.00 | 0.00 | 67 | 1008.4 |
| 20260506081544 | 17 | 0 | 0.0 | 8.0 | 0.00 | 0.00 | 0.00 | 65 | 1008.5 |
| 20260506073047 | 17 | 15 | 3.2 | 19.3 | 0.00 | 0.00 | 0.00 | 62 | 1008.6 |
| 20260506071541 | 17 | 51 | 4.8 | 16.1 | 0.00 | 0.00 | 0.00 | 62 | 1008.7 |
| 20260506061541 | 18 | 19 | 1.6 | 16.1 | 0.00 | 0.00 | 0.00 | 60 | 1009.2 |
| 20260506044631 | 19 | 269 | 3.2 | 17.7 | 0.00 | 0.00 | 0.00 | 55 | 1009.7 |
| 20260506043036 | 19 | 311 | 4.8 | 12.9 | 0.00 | 0.00 | 0.00 | 53 | 1009.6 |
| 20260506041556 | 20 | 292 | 3.2 | 19.3 | 0.00 | 0.00 | 0.00 | 52 | 1009.5 |
| 20260506040043 | 20 | 300 | 4.8 | 14.5 | 0.00 | 0.00 | 0.00 | 51 | 1009.6 |
| 20260506034610 | 20 | 296 | 4.8 | 16.1 | 0.00 | 0.00 | 0.00 | 50 | 1009.5 |
| 20260506033038 | 20 | 325 | 6.4 | 20.9 | 0.00 | 0.00 | 0.00 | 49 | 1009.3 |
| 20260506031535 | 20 | 319 | 4.8 | 22.5 | 0.00 | 0.00 | 0.00 | 50 | 1009.2 |
| 20260506030042 | 20 | 102 | 4.8 | 19.3 | 0.00 | 0.00 | 0.00 | 50 | 1009.4 |
| 20260506024541 | 20 | 0 | 4.8 | 17.7 | 0.00 | 0.00 | 0.00 | 49 | 1009.4 |
| 20260506023101 | 20 | 308 | 1.6 | 24.1 | 0.00 | 0.00 | 0.00 | 48 | 1009.6 |
| 20260506021536 | 21 | 29 | 8.0 | 20.9 | 0.00 | 0.00 | 0.00 | 47 | 1009.5 |
| 20260506020045 | 21 | 292 | 4.8 | 17.7 | 0.00 | 0.00 | 0.00 | 45 | 1009.3 |
| 20260506014542 | 21 | 309 | 3.2 | 14.5 | 0.00 | 0.00 | 0.00 | 43 | 1009.2 |
| 20260506013042 | 22 | 302 | 4.8 | 20.9 | 0.00 | 0.00 | 0.00 | 42 | 1009.0 |
| 20260506011549 | 22 | 332 | 8.0 | 19.3 | 0.00 | 0.00 | 0.00 | 41 | 1009.0 |
| 20260506010042 | 22 | 360 | 6.4 | 27.4 | 0.00 | 0.00 | 0.00 | 42 | 1008.7 |
| 20260506004600 | 22 | 329 | 9.7 | 22.5 | 0.00 | 0.00 | 0.00 | 42 | 1008.5 |
| 20260506003047 | 22 | 285 | 4.8 | 20.9 | 0.00 | 0.00 | 0.00 | 42 | 1008.5 |
| 20260506001540 | 22 | 297 | 6.4 | 22.5 | 0.00 | 0.00 | 0.00 | 43 | 1008.3 |
| 20260506000047 | 22 | 0 | 3.2 | 22.5 | 0.00 | 0.00 | 0.00 | 42 | 1008.2 |
| 20260505234601 | 22 | 5 | 4.8 | 20.9 | 0.00 | 0.00 | 0.00 | 42 | 1008.2 |
| 20260505233042 | 22 | 292 | 6.4 | 19.3 | 0.00 | 0.00 | 0.00 | 41 | 1008.1 |
| 20260505231541 | 23 | 332 | 8.0 | 19.3 | 0.00 | 0.00 | 0.00 | 40 | 1007.9 |
| 20260505230043 | 23 | 279 | 6.4 | 27.4 | 0.00 | 0.00 | 0.00 | 39 | 1007.8 |
| 20260505224543 | 23 | 338 | 6.4 | 20.9 | 0.00 | 0.00 | 0.00 | 39 | 1007.7 |
| 20260505223042 | 23 | 196 | 4.8 | 22.5 | 0.00 | 0.00 | 0.00 | 39 | 1007.6 |
| 20260505221541 | 23 | 47 | 4.8 | 24.1 | 0.00 | 0.00 | 0.00 | 40 | 1007.4 |
| 20260505220055 | 23 | 27 | 8.0 | 22.5 | 0.00 | 0.00 | 0.00 | 38 | 1007.3 |
| 20260505214543 | 24 | 26 | 6.4 | 24.1 | 0.00 | 0.00 | 0.00 | 37 | 1007.1 |
| 20260505213043 | 25 | 268 | 6.4 | 29.0 | 0.00 | 0.00 | 0.00 | 36 | 1007.0 |
| 20260505211545 | 25 | 331 | 1.6 | 16.1 | 0.00 | 0.00 | 0.00 | 32 | 1007.0 |
| 20260505210040 | 25 | 296 | 9.7 | 20.9 | 0.00 | 0.00 | 0.00 | 30 | 1006.8 |
| 20260505204537 | 25 | 342 | 4.8 | 24.1 | 0.00 | 0.00 | 0.00 | 30 | 1006.8 |
| 20260505203044 | 26 | 304 | 6.4 | 30.6 | 0.00 | 0.00 | 0.00 | 29 | 1006.6 |
| 20260505201538 | 26 | 299 | 11.3 | 30.6 | 0.00 | 0.00 | 0.00 | 29 | 1006.7 |
| 20260505200041 | 26 | 265 | 9.7 | 24.1 | 0.00 | 0.00 | 0.00 | 32 | 1006.9 |
| 20260505194545 | 26 | 273 | 4.8 | 22.5 | 0.00 | 0.00 | 0.00 | 31 | 1007.2 |
| 20260505193046 | 26 | 50 | 12.9 | 35.4 | 0.00 | 0.00 | 0.00 | 32 | 1007.3 |
| 20260505191552 | 26 | 348 | 11.3 | 41.8 | 0.00 | 0.00 | 0.00 | 31 | 1007.4 |
| 20260505190038 | 26 | 300 | 6.4 | 25.7 | 0.00 | 0.00 | 0.00 | 34 | 1007.6 |
| 20260505184544 | 26 | 26 | 8.0 | 40.2 | 0.00 | 0.00 | 0.00 | 36 | 1007.8 |
| 20260505183041 | 25 | 32 | 9.7 | 24.1 | 0.00 | 0.00 | 0.00 | 38 | 1008.0 |
| 20260505181540 | 26 | 340 | 9.7 | 25.7 | 0.00 | 0.00 | 0.00 | 35 | 1008.3 |
| 20260505180050 | 26 | 265 | 8.0 | 30.6 | 0.00 | 0.00 | 0.00 | 39 | 1008.3 |
| 20260505174542 | 25 | 299 | 12.9 | 33.8 | 0.00 | 0.00 | 0.00 | 36 | 1008.6 |
| 20260505173045 | 25 | 294 | 12.9 | 33.8 | 0.00 | 0.00 | 0.00 | 39 | 1008.7 |
| 20260505171541 | 25 | 336 | 9.7 | 49.9 | 0.00 | 0.00 | 0.00 | 41 | 1008.4 |
| 20260505170055 | 25 | 248 | 11.3 | 32.2 | 0.00 | 0.00 | 0.00 | 42 | 1008.5 |
| 20260505164539 | 25 | 332 | 6.4 | 25.7 | 0.00 | 0.00 | 0.00 | 42 | 1008.5 |
| 20260505163040 | 25 | 279 | 9.7 | 27.4 | 0.00 | 0.00 | 0.00 | 43 | 1008.7 |
| 20260505161548 | 23 | 299 | 9.7 | 30.6 | 0.00 | 0.00 | 0.00 | 45 | 1009.0 |
| 20260505153052 | 22 | 312 | 8.0 | 24.1 | 0.00 | 0.00 | 0.00 | 46 | 1009.6 |
| 20260505151542 | 23 | 284 | 8.0 | 32.2 | 0.00 | 0.00 | 0.00 | 48 | 1009.6 |
| 20260505124544 | 18 | 322 | 4.8 | 16.1 | 0.00 | 0.00 | 0.00 | 59 | 1009.9 |
| 20260505123101 | 18 | 318 | 4.8 | 11.3 | 0.00 | 0.00 | 0.00 | 61 | 1009.8 |
| 20260505121542 | 17 | 0 | 3.2 | 16.1 | 0.00 | 0.00 | 0.00 | 60 | 1009.8 |
| 20260505120045 | 17 | 59 | 3.2 | 14.5 | 0.00 | 0.00 | 0.00 | 64 | 1009.6 |
| 20260505114603 | 16 | 314 | 1.6 | 12.9 | 0.00 | 0.00 | 0.00 | 68 | 1009.6 |